1500717600.83,9568,23.25,74430.0,24.31,5.77,8.69,0,*79
1500717602.05,9569,23.25,74424.3,24.35,5.67,8.75,0,*70
1500717603.25,9570,23.25,74428.8,24.39,6.11,9.47,0,*76
1500717604.48,9571,23.25,74428.0,24.43,8.27,11.71,0,*4D
1500717605.71,9572,23.25,74428.0,24.53,8.71,12.47,0,*4A
1500717606.96,9573,23.25,74430.3,24.61,8.71,12.53,0,*4F
1500717608.17,9574,23.25,74426.8,24.69,8.23,12.19,0,*49
1500717609.43,9575,23.25,74426.8,24.79,9.49,13.39,0,*47
1500717610.63,9576,23.25,74428.5,24.85,8.33,11.85,0,*4E
1500717611.86,9577,23.25,74424.5,24.91,8.19,11.33,0,*4F
1500717613.08,9578,23.25,74428.5,24.97,6.65,9.61,0,*7D
1500717614.26,9579,23.25,74426.8,25.01,7.41,10.47,0,*49
1500717615.45,9580,23.25,74430.8,25.01,7.05,10.03,0,*4F
1500717616.65,9581,23.25,74428.0,25.05,4.33,7.19,0,*71
1500717617.86,9582,23.25,74430.8,25.05,4.89,7.95,0,*77
1500717619.1,9583,23.25,74432.3,25.07,5.85,9.01,0,*7A
1500717620.33,9584,23.25,74430.8,25.11,5.07,8.13,0,*72
1500717621.52,9585,23.25,74432.0,25.09,5.45,8.47,0,*7D
1500717622.69,9586,23.25,74430.3,25.09,5.11,8.19,0,*74
1500717623.92,9587,23.25,74432.3,25.09,4.59,7.91,0,*77
1500717625.14,9588,23.25,74432.3,25.13,4.79,8.51,0,*72
1500717626.37,9589,23.25,74430.5,25.13,7.15,11.07,0,*41
1500717627.59,9590,23.25,74432.3,25.19,6.21,10.17,0,*45
1500717628.79,9591,23.25,74432.8,25.23,5.59,9.33,0,*7F
1500717630.01,9592,23.25,74434.5,25.23,6.29,10.09,0,*49
1500717631.21,9593,23.25,74434.0,25.25,8.01,11.41,0,*47
1500717632.45,9594,23.25,74430.3,25.27,7.91,11.13,0,*43
1500717633.66,9595,23.25,74430.8,25.27,7.51,10.69,0,*42
1500717634.84,9596,23.25,74432.8,25.29,8.87,11.81,0,*4C
1500717636.1,9597,23.25,74432.8,25.31,7.61,10.31,0,*49
1500717637.27,9598,23.25,74434.8,25.33,5.59,8.79,0,*78
1500717638.44,9599,23.25,74436.8,25.33,5.37,8.79,0,*71
1500717639.68,9600,23.25,74434.0,25.33,6.87,10.19,0,*45
1500717640.88,9601,23.25,74432.5,25.33,5.11,8.59,0,*75
1500717642.1,9602,23.25,74434.0,25.29,3.97,7.77,0,*76
1500717643.3,9603,23.25,74432.8,25.29,5.45,9.49,0,*7D
1500717644.52,9604,23.25,74434.5,25.29,5.77,9.77,0,*76
1500717645.75,9605,23.25,74434.0,25.31,9.29,13.65,0,*41
1500717646.96,9606,23.25,74434.8,25.37,10.05,14.59,0,*7A
1500717648.21,9607,23.25,74432.3,25.45,11.33,16.11,0,*74
1500717649.42,9608,23.25,74438.5,25.53,11.55,16.49,0,*71
1500717650.65,9609,23.25,74436.5,25.57,9.43,14.45,0,*44
1500717651.92,9610,23.25,74436.8,25.65,8.55,13.39,0,*47
1500717653.16,9611,23.25,74436.8,25.65,5.77,10.65,0,*41
1500717654.41,9612,23.25,74434.5,25.65,1.93,6.51,0,*7C
1500717655.66,9613,23.25,74432.0,25.57,2.47,6.47,0,*71
1500717656.85,9614,23.25,74432.0,25.51,0.59,3.85,0,*46
1500717658.05,9615,23.25,74434.0,25.43,-0.69,1.89,0,*64
1500717659.25,9616,23.25,74424.8,25.33,1.25,2.99,0,*76
1500717660.47,9617,23.25,74430.5,25.27,-0.03,0.83,0,*63
1500717661.68,9618,23.25,74428.0,25.19,-0.33,-0.33,0,*74
1500717662.9,9619,23.25,74424.5,25.11,-0.65,-0.97,0,*70
1500717664.13,9620,23.25,74424.8,25.03,1.37,1.05,0,*75
1500717665.35,9621,23.25,74422.8,24.93,0.41,-0.23,0,*54
1500717666.55,9622,23.25,74424.0,24.89,-0.61,-1.35,0,*45
1500717667.79,9623,23.25,74420.3,24.81,-1.05,-1.95,0,*75
1500717668.97,9624,23.31,74422.5,24.75,-0.73,-1.63,0,*40
1500717670.15,9625,23.31,74426.3,24.67,-3.11,-3.31,0,*70
1500717671.38,9626,23.25,74426.3,24.61,-4.45,-4.81,0,*7F
1500717672.63,9627,23.25,74424.5,24.55,-3.63,-2.75,0,*77
1500717673.86,9628,23.25,74426.5,24.51,-2.55,-0.97,0,*46
1500717675.06,9629,23.25,74420.3,24.51,-1.25,1.47,0,*52
1500717676.28,9630,23.25,74424.3,24.53,-2.55,0.97,0,*60
1500717677.48,9631,23.25,74428.0,24.51,-4.29,0.37,0,*64
1500717678.69,9632,23.31,74428.0,24.47,-5.73,-0.11,0,*47
1500717679.92,9633,23.25,74428.5,24.43,-7.49,-1.05,0,*7D
1500717681.13,9634,23.25,74430.5,24.37,-8.59,-1.39,0,*78
1500717682.33,9635,23.25,74430.0,24.31,-7.87,-0.29,0,*43
1500717683.56,9636,23.31,74432.0,24.23,-7.65,0.43,0,*6E
1500717684.79,9637,23.25,74428.0,24.19,-6.35,1.67,0,*55
1500717686.03,9638,23.25,74426.8,24.11,-6.93,1.37,0,*5B
1500717687.24,9639,23.25,74428.8,24.09,-3.75,4.27,0,*5A
1500717688.47,9640,23.25,74426.3,24.07,-3.55,4.31,0,*5F
1500717689.73,9641,23.25,74426.3,24.01,-1.09,6.51,0,*57
1500717690.97,9642,23.25,74426.5,24.01,0.25,7.19,0,*4B
1500717692.2,9643,23.25,74424.5,24.01,1.37,7.97,0,*7E
1500717693.45,9644,23.25,74424.8,24.01,2.77,8.75,0,*7D
1500717694.68,9645,23.25,74426.5,23.99,3.67,8.97,0,*76
1500717695.88,9646,23.31,74426.3,23.99,2.55,7.37,0,*70
1500717697.11,9647,23.25,74426.5,23.97,0.95,5.37,0,*43
1500717698.33,9648,23.31,74424.8,23.93,2.35,6.51,0,*73
1500717699.54,9649,23.25,74424.5,23.91,3.15,6.97,0,*79
1500717700.78,9650,23.25,74420.5,23.89,4.27,7.61,0,*76
1500717702.0,9651,23.31,74420.5,23.85,4.81,8.13,0,*7D
1500717703.21,9652,23.31,74426.0,23.85,6.29,9.25,0,*7A
1500717704.44,9653,23.25,74422.5,23.85,7.11,9.91,0,*7E
1500717705.65,9654,23.31,74420.5,23.87,7.05,9.49,0,*7B
1500717706.91,9655,23.25,74416.0,23.85,6.69,8.93,0,*75
1500717708.15,9656,23.25,74416.3,23.85,7.47,9.11,0,*70
1500717709.39,9657,23.25,74418.3,23.83,6.65,8.13,0,*75
1500717710.61,9658,23.31,74422.0,23.79,4.97,6.25,0,*7B
1500717711.83,9659,23.31,74420.3,23.75,5.05,5.95,0,*74
1500717713.09,9660,23.31,74418.0,23.71,6.51,7.19,0,*7E
1500717714.31,9661,23.25,74418.5,23.67,6.57,6.97,0,*79
1500717715.53,9662,23.31,74422.3,23.67,5.89,6.21,0,*77
1500717716.73,9663,23.25,74418.0,23.63,5.15,5.49,0,*7A
1500717717.95,9664,23.31,74420.3,23.53,5.27,5.51,0,*76
1500717719.15,9665,23.25,74416.3,23.49,5.89,6.11,0,*7F
1500717720.38,9666,23.31,74422.5,23.45,6.33,6.51,0,*76
1500717721.55,9667,23.25,74420.3,23.43,6.83,7.09,0,*76
1500717722.78,9668,23.31,74422.3,23.41,7.77,8.15,0,*73
1500717724.0,9669,23.31,74426.3,23.41,7.73,8.05,0,*77
1500717725.23,9670,23.31,74422.0,23.41,7.37,7.77,0,*75
1500717726.49,9671,23.31,74420.5,23.37,7.23,7.69,0,*7F
1500717727.69,9672,23.25,74420.5,23.33,7.45,8.19,0,*70
1500717728.9,9673,23.31,74420.3,23.31,7.29,7.87,0,*71
1500717730.1,9674,23.31,74420.3,23.27,6.61,7.41,0,*76
1500717731.3,9675,23.31,74422.8,23.27,7.01,7.73,0,*71
1500717732.48,9676,23.31,74420.5,23.27,8.01,8.61,0,*71
1500717733.71,9677,23.31,74420.3,23.25,7.79,8.33,0,*75
1500717734.88,9678,23.31,74420.0,23.23,7.51,8.09,0,*7F
1500717736.1,9679,23.25,74416.8,23.23,7.65,8.29,0,*7B
1500717737.3,9680,23.31,74422.8,23.23,7.33,7.91,0,*72
1500717738.51,9681,23.31,74420.0,23.19,6.93,7.61,0,*7E
1500717739.72,9682,23.31,74424.3,23.19,8.15,8.75,0,*77
1500717740.92,9683,23.31,74422.0,23.19,8.87,9.35,0,*78
1500717742.16,9684,23.31,74422.8,23.17,9.25,9.49,0,*73
1500717743.41,9685,23.31,74420.3,23.17,8.59,8.71,0,*72
1500717744.66,9686,23.31,74420.5,23.15,8.33,8.41,0,*7C
1500717745.86,9687,23.31,74422.8,23.15,8.87,8.87,0,*78
1500717747.11,9688,23.31,74422.5,23.15,8.97,8.97,0,*77
1500717748.32,9689,23.31,74422.0,23.11,9.25,9.15,0,*71
1500717749.53,9690,23.31,74422.8,23.09,8.87,8.71,0,*7A
1500717750.72,9691,23.31,74418.0,23.09,7.37,7.15,0,*72
1500717751.95,9692,23.31,74424.5,23.07,6.91,6.79,0,*79
1500717753.17,9693,23.31,74420.3,23.01,7.73,7.61,0,*7B
1500717754.36,9694,23.31,74422.0,22.97,7.55,7.51,0,*75
1500717755.56,9695,23.31,74420.3,22.97,7.91,7.79,0,*76
1500717756.79,9696,23.31,74422.0,22.93,7.27,7.27,0,*77
1500717758.02,9697,23.31,74422.8,22.89,6.87,6.91,0,*7A
1500717759.25,9698,23.31,74424.0,22.87,7.45,7.65,0,*7E
1500717760.47,9699,23.31,74422.5,22.87,8.47,8.79,0,*70
1500717761.68,9700,23.31,74422.8,22.85,8.09,8.33,0,*77
1500717762.88,9701,23.31,74422.8,22.85,8.01,8.55,0,*7E
1500717764.08,9702,23.31,74422.0,22.83,7.65,8.09,0,*7F
1500717765.3,9703,23.31,74422.3,22.83,8.29,8.71,0,*76
1500717766.5,9704,23.31,74424.8,22.79,7.77,8.23,0,*77
1500717767.72,9705,23.31,74422.5,22.79,7.77,8.13,0,*75
1500717768.92,9706,23.31,74422.8,22.77,8.69,9.21,0,*78
1500717770.14,9707,23.31,74424.0,22.77,9.53,9.99,0,*72
1500717771.35,9708,23.31,74424.0,22.77,9.43,9.91,0,*74
1500717772.56,9709,23.31,74424.3,22.77,9.03,9.67,0,*78
1500717773.76,9710,23.31,74424.8,22.77,9.33,9.91,0,*7A
1500717774.99,9711,23.31,74424.3,22.77,8.93,9.43,0,*7F
1500717776.19,9712,23.31,74426.3,22.77,8.09,8.45,0,*78
1500717777.39,9713,23.31,74428.3,22.75,7.77,8.23,0,*7D
1500717778.58,9714,23.31,74424.3,22.75,8.19,8.83,0,*77
1500717779.83,9715,23.31,74426.3,22.73,8.41,9.15,0,*73
1500717781.06,9716,23.31,74424.5,22.71,8.41,9.19,0,*7E
1500717782.3,9717,23.31,74428.8,22.73,8.87,9.81,0,*76
1500717783.51,9718,23.31,74426.8,22.71,8.79,9.53,0,*75
1500717784.73,9719,23.31,74428.3,22.73,9.25,10.05,0,*45
1500717785.97,9720,23.31,74426.0,22.73,9.35,10.05,0,*4E
1500717787.18,9721,23.31,74424.8,22.71,9.63,10.31,0,*49
1500717788.38,9722,23.31,74428.5,22.71,9.19,9.75,0,*7F
1500717789.58,9723,23.31,74428.0,22.71,8.37,8.79,0,*7E
1500717790.78,9724,23.31,74428.0,22.71,8.29,8.83,0,*73
1500717791.98,9725,23.31,74430.0,22.71,8.37,8.79,0,*78
1500717793.18,9726,23.31,74428.5,22.65,8.09,8.45,0,*7C
1500717794.42,9727,23.31,74428.8,22.65,7.29,7.61,0,*79
1500717795.62,9728,23.31,74428.5,22.65,7.05,7.29,0,*74
1500717796.83,9729,23.31,74428.8,22.57,5.63,5.95,0,*73
1500717798.08,9730,23.31,74430.5,22.57,5.89,5.85,0,*7E
1500717799.34,9731,23.31,74426.3,22.53,6.35,6.13,0,*73
1500717800.54,9732,23.31,74428.5,22.47,6.03,5.73,0,*75
1500717801.75,9733,23.31,74430.3,22.43,6.11,5.51,0,*73
1500717802.94,9734,23.31,74426.0,22.39,5.55,4.81,0,*76
1500717804.17,9735,23.31,74430.8,22.37,5.95,5.01,0,*7C
1500717805.39,9736,23.31,74432.0,22.35,5.77,4.79,0,*7F
1500717806.62,9737,23.31,74428.0,22.31,6.87,5.55,0,*79
1500717807.8,9738,23.31,74430.3,22.27,6.97,5.41,0,*75
1500717809.01,9739,23.31,74430.5,22.27,6.57,4.49,0,*71
1500717810.26,9740,23.31,74434.8,22.21,7.47,5.05,0,*70
1500717811.49,9741,23.31,74432.3,22.21,6.35,3.55,0,*76
1500717812.69,9742,23.31,74438.5,22.21,7.33,4.27,0,*70
1500717813.92,9743,23.31,74436.5,22.21,8.41,5.33,0,*7F
1500717815.12,9744,23.31,74438.0,22.19,7.29,4.11,0,*73
1500717816.34,9745,23.31,74436.5,22.19,7.47,4.53,0,*7C
1500717817.56,9746,23.31,74436.3,22.19,7.65,4.57,0,*7B
1500717818.78,9747,23.31,74438.5,22.21,4.75,1.41,0,*71
1500717819.99,9748,23.31,74436.0,22.17,3.03,-0.37,0,*60
1500717821.18,9749,23.31,74434.3,22.17,4.23,0.91,0,*45
1500717822.4,9750,23.31,74438.0,22.17,4.01,0.75,0,*47
1500717823.61,9751,23.31,74432.8,22.17,1.75,-1.43,0,*59
1500717824.83,9752,23.31,74438.8,22.13,0.91,-1.91,0,*6A
1500717826.06,9753,23.31,74432.0,22.11,0.01,-2.47,0,*58
1500717827.24,9754,23.31,74438.5,22.09,-0.11,-2.31,0,*4B
1500717828.43,9755,23.31,74436.5,22.05,-2.39,-4.21,0,*79
1500717829.61,9756,23.31,74436.3,22.05,-0.45,-2.19,0,*4E
1500717830.83,9757,23.31,74436.3,21.99,0.25,-1.25,0,*6E
1500717832.04,9758,23.31,74438.3,22.03,-0.69,-2.15,0,*44
1500717833.29,9759,23.31,74438.5,21.99,-0.93,-1.95,0,*4B
1500717834.52,9760,23.31,74438.3,22.03,-0.93,-1.75,0,*4F
1500717835.76,9761,23.31,74438.0,21.99,-1.59,-2.07,0,*7F
1500717836.97,9762,23.31,74440.3,21.99,-1.79,-1.59,0,*76
1500717838.23,9763,23.31,74436.8,21.95,-2.67,-1.91,0,*73
1500717839.44,9764,23.31,74436.0,21.95,-1.63,-0.29,0,*41
1500717840.67,9765,23.31,74438.8,21.95,-1.17,0.33,0,*65
1500717841.9,9766,23.31,74436.5,21.95,-0.15,1.51,0,*60
1500717843.12,9767,23.31,74438.8,21.95,0.05,1.33,0,*79
1500717844.36,9768,23.31,74434.8,21.95,0.21,1.67,0,*41
1500717845.62,9769,23.31,74438.0,21.95,1.29,2.39,0,*71
1500717846.83,9770,23.31,74436.8,21.93,1.17,1.79,0,*75
1500717848.02,9771,23.31,74436.5,21.93,1.51,1.41,0,*7D
1500717849.28,9772,23.31,74438.5,21.91,1.85,1.13,0,*72
1500717850.48,9773,23.31,74438.3,21.89,1.83,0.59,0,*43
1500717851.7,9774,23.31,74442.3,21.87,2.25,0.71,0,*4F
1500717852.93,9775,23.31,74440.3,21.85,1.21,-0.65,0,*63
1500717854.15,9776,23.31,74442.0,21.83,0.41,-1.95,0,*6F
1500717855.37,9777,23.31,74442.8,21.79,-2.11,-4.61,0,*7F
1500717856.58,9778,23.31,74436.0,21.71,-0.53,-2.71,0,*4B
1500717857.82,9779,23.31,74436.3,21.69,-0.15,-2.47,0,*44
1500717859.02,9780,23.31,74436.3,21.67,-0.89,-3.19,0,*43
1500717860.28,9781,23.31,74434.8,21.65,-0.23,-2.55,0,*49
1500717861.53,9782,23.31,74432.0,21.61,0.51,-2.11,0,*66
1500717862.75,9783,23.31,74434.5,21.61,-1.25,-4.05,0,*7B
1500717863.94,9784,23.31,74434.8,21.53,-1.33,-4.05,0,*7A
1500717865.16,9785,23.31,74434.5,21.51,-1.67,-4.41,0,*78
1500717866.39,9786,23.31,74436.3,21.47,-4.45,-7.95,0,*73
1500717867.62,9787,23.31,74434.8,21.41,-5.93,-8.89,0,*7C
1500717868.85,9788,23.31,74438.0,21.37,-4.73,-8.11,0,*7C
1500717870.07,9789,23.31,74432.8,21.29,-5.61,-9.05,0,*74
1500717871.31,9790,23.31,74432.3,21.25,-5.31,-8.51,0,*75
1500717872.51,9791,23.31,74434.8,21.21,-5.81,-8.75,0,*7D
1500717873.72,9792,23.31,74436.8,21.17,-5.31,-7.83,0,*76
1500717874.96,9793,23.31,74434.0,21.11,-5.15,-7.19,0,*74
1500717876.22,9794,23.31,74434.0,21.11,-6.19,-7.95,0,*78
1500717877.44,9795,23.31,74432.3,21.07,-5.11,-6.39,0,*72
1500717878.67,9796,23.31,74428.0,21.07,-4.41,-5.31,0,*7E
1500717879.88,9797,23.31,74434.5,21.07,-4.17,-4.53,0,*79
1500717881.09,9798,23.31,74434.8,21.11,-4.13,-4.13,0,*71
1500717882.34,9799,23.31,74434.3,21.07,-1.39,-1.13,0,*7F
1500717883.58,9800,23.31,74430.8,21.11,0.17,0.47,0,*7A
1500717884.82,9801,23.31,74428.8,21.19,1.67,2.05,0,*71
1500717886.06,9802,23.31,74432.5,21.27,0.59,1.17,0,*43
1500717887.29,9803,23.38,74436.8,21.31,-0.19,0.75,0,*59
1500717888.49,9804,23.31,74430.5,21.37,0.71,1.79,0,*46
1500717889.72,9805,23.31,74432.8,21.41,-3.47,-2.19,0,*75
1500717890.9,9806,23.31,74434.8,21.41,-7.53,-6.09,0,*72
1500717892.1,9807,23.31,74434.8,21.41,-8.75,-7.11,0,*70
1500717893.32,9808,23.31,74432.0,21.35,-8.55,-6.85,0,*72
1500717894.57,9809,23.31,74436.5,21.27,-8.93,-7.35,0,*70
1500717895.76,9810,23.31,74432.8,21.25,-7.87,-6.43,0,*70
1500717896.97,9811,23.31,74428.5,21.21,-8.37,-6.97,0,*78
1500717898.2,9812,23.31,74432.8,21.19,-8.75,-7.57,0,*7B
1500717899.41,9813,23.31,74434.5,21.13,-8.97,-7.73,0,*7A
1500717900.68,9814,23.31,74434.8,21.11,-9.15,-8.07,0,*78
1500717901.84,9815,23.38,74436.0,21.05,-9.67,-8.67,0,*7F
1500717903.06,9816,23.31,74432.8,21.01,-8.85,-7.65,0,*78
1500717904.28,9817,23.31,74434.0,20.99,-7.99,-6.69,0,*76
1500717905.55,9818,23.31,74434.5,20.95,-6.97,-5.61,0,*71
1500717906.76,9819,23.31,74432.3,20.95,-6.05,-4.49,0,*70
1500717907.96,9820,23.31,74432.3,20.95,-6.39,-4.49,0,*75
1500717909.17,9821,23.31,74434.8,20.91,-5.47,-3.51,0,*74
1500717910.37,9822,23.31,74432.3,20.91,-5.97,-4.01,0,*78
1500717911.58,9823,23.31,74432.5,20.91,-5.81,-3.91,0,*70
1500717912.81,9824,23.31,74432.3,20.91,-4.77,-2.75,0,*74
1500717914.04,9825,23.31,74434.3,20.89,-4.53,-2.63,0,*7D
1500717915.25,9826,23.31,74434.3,20.89,-5.55,-3.87,0,*72
1500717916.47,9827,23.31,74432.5,20.85,-7.35,-6.13,0,*73
1500717917.66,9828,23.31,74434.0,20.83,-6.77,-5.97,0,*72
1500717918.84,9829,23.31,74430.8,20.79,-7.87,-7.53,0,*72
1500717920.05,9830,23.31,74432.0,20.75,-7.61,-7.53,0,*7E
1500717921.31,9831,23.31,74432.8,20.73,-6.97,-7.35,0,*71
1500717922.52,9832,23.38,74436.0,20.67,-7.23,-7.73,0,*7B
1500717923.73,9833,23.31,74432.0,20.63,-6.47,-7.01,0,*78
1500717924.97,9834,23.38,74432.3,20.59,-7.05,-7.83,0,*7B
1500717926.23,9835,23.31,74430.5,20.59,-6.23,-7.01,0,*75
1500717927.43,9836,23.31,74430.3,20.59,-5.43,-6.09,0,*7A
1500717928.64,9837,23.31,74434.8,20.57,-4.61,-5.07,0,*79
1500717929.9,9838,23.31,74432.0,20.55,-4.85,-5.69,0,*76
1500717931.14,9839,23.31,74430.3,20.55,-5.93,-6.43,0,*7A
1500717932.37,9840,23.38,74434.0,20.51,-6.77,-7.31,0,*7D
1500717933.6,9841,23.31,74432.0,20.47,-6.73,-7.05,0,*78
1500717934.86,9842,23.31,74428.3,20.47,-7.05,-7.05,0,*7B
1500717936.1,9843,23.31,74430.3,20.43,-8.07,-7.83,0,*7D
1500717937.31,9844,23.31,74428.8,20.37,-6.23,-6.01,0,*7A
1500717938.52,9845,23.31,74428.0,20.33,-6.23,-6.05,0,*7B
1500717939.76,9846,23.31,74430.5,20.33,-6.19,-5.73,0,*73
1500717941.0,9847,23.31,74430.3,20.31,-5.19,-4.49,0,*7B
1500717942.18,9848,23.31,74430.5,20.29,-4.29,-3.87,0,*7A
1500717943.39,9849,23.31,74430.5,20.25,-4.13,-4.09,0,*7F
1500717944.62,9850,23.31,74428.0,20.25,-3.31,-3.47,0,*7D
1500717945.85,9851,23.31,74428.5,20.21,-2.63,-3.35,0,*7B
1500717947.06,9852,23.31,74428.0,20.17,-2.43,-3.95,0,*75
1500717948.25,9853,23.31,74428.0,20.15,-2.27,-4.45,0,*7E
1500717949.46,9854,23.38,74434.5,20.11,-2.47,-5.35,0,*7D
1500717950.69,9855,23.38,74432.3,20.11,-2.47,-5.73,0,*7E
1500717951.89,9856,23.38,74434.8,20.11,-3.27,-6.51,0,*79
1500717953.1,9857,23.31,74430.3,20.11,-2.39,-5.07,0,*76
1500717954.28,9858,23.31,74430.3,20.11,-3.23,-5.43,0,*73
1500717955.55,9859,23.31,74430.5,20.13,-3.71,-5.19,0,*78
1500717956.79,9860,23.38,74432.5,20.13,-4.25,-5.19,0,*74
1500717957.98,9861,23.38,74430.5,20.15,-5.35,-5.47,0,*78
1500717959.22,9862,23.31,74430.3,20.17,-5.47,-4.93,0,*74
1500717960.43,9863,23.31,74428.3,20.21,-3.87,-2.87,0,*79
1500717961.64,9864,23.38,74434.5,20.23,-4.37,-2.75,0,*7D
1500717962.85,9865,23.38,74432.0,20.27,-3.47,-1.17,0,*7F
1500717964.11,9866,23.38,74434.3,20.31,-2.71,0.25,0,*62
1500717965.36,9867,23.38,74428.8,20.39,-2.03,1.67,0,*59
1500717966.54,9868,23.38,74428.3,20.45,-1.33,2.95,0,*53
1500717967.73,9869,23.38,74428.3,20.53,0.01,4.67,0,*73
1500717968.96,9870,23.38,74430.0,20.61,-0.53,4.75,0,*63
1500717970.15,9871,23.38,74430.8,20.73,-0.45,5.41,0,*60
1500717971.38,9872,23.38,74428.3,20.79,-0.97,5.55,0,*63
1500717972.58,9873,23.38,74430.0,20.85,-4.49,2.99,0,*51
1500717973.83,9874,23.38,74426.0,20.89,-5.11,2.51,0,*52
1500717975.07,9875,23.31,74424.3,20.89,-4.93,3.03,0,*5E
1500717976.29,9876,23.38,74424.5,20.89,-4.05,3.37,0,*55
1500717977.53,9877,23.38,74430.3,20.89,-5.61,2.21,0,*51
1500717978.76,9878,23.31,74422.3,20.85,-4.49,3.33,0,*5B
1500717979.98,9879,23.38,74426.8,20.85,-3.71,3.93,0,*5C
1500717981.23,9880,23.38,74426.0,20.85,-2.51,5.27,0,*50
1500717982.45,9881,23.38,74426.0,20.85,-0.45,6.73,0,*64
1500717983.64,9882,23.38,74424.3,20.91,0.25,7.29,0,*47
1500717984.89,9883,23.38,74424.3,20.95,2.39,8.97,0,*77
1500717986.12,9884,23.38,74426.0,20.95,4.27,10.27,0,*4B
1500717987.3,9885,23.38,74422.5,21.01,5.11,10.55,0,*47
1500717988.51,9886,23.31,74422.8,21.05,5.55,10.57,0,*42
1500717989.72,9887,23.31,74420.3,21.11,6.33,10.85,0,*4A
1500717990.96,9888,23.31,74418.8,21.11,7.77,11.75,0,*4A
1500717992.19,9889,23.38,74424.0,21.15,8.69,12.33,0,*4E
1500717993.43,9890,23.38,74426.0,21.23,8.51,11.67,0,*4A
1500717994.65,9891,23.38,74426.0,21.23,8.89,11.81,0,*46
1500717995.88,9892,23.38,74424.5,21.27,8.29,10.93,0,*49
1500717997.09,9893,23.38,74424.0,21.29,8.65,10.95,0,*48
1500717998.3,9894,23.38,74428.0,21.29,8.13,9.99,0,*7A
1500717999.51,9895,23.38,74430.0,21.31,8.83,10.43,0,*44
1500718000.75,9896,23.38,74430.3,21.31,9.01,10.43,0,*4C
1500718001.96,9897,23.38,74426.8,21.35,9.75,11.17,0,*4A
1500718003.2,9898,23.38,74428.0,21.37,9.49,10.71,0,*49
1500718004.44,9899,23.38,74430.3,21.39,9.57,10.43,0,*48
1500718005.68,9900,23.38,74430.5,21.41,9.01,9.81,0,*73
1500718006.9,9901,23.38,74428.0,21.39,9.75,10.51,0,*4B
1500718008.13,9902,23.38,74430.3,21.41,10.57,11.33,0,*7A
1500718009.36,9903,23.38,74430.0,21.43,10.79,11.65,0,*76
1500718010.61,9904,23.38,74428.8,21.45,10.79,11.61,0,*73
1500718011.82,9905,23.38,74430.5,21.45,11.03,11.81,0,*70
1500718013.04,9906,23.38,74430.0,21.49,11.41,12.27,0,*76
1500718014.27,9907,23.38,74430.5,21.53,11.57,12.43,0,*79
1500718015.47,9908,23.38,74430.8,21.53,11.13,11.99,0,*72
1500718016.7,9909,23.38,74430.5,21.59,10.83,11.75,0,*73
1500718017.94,9910,23.38,74430.0,21.59,10.61,11.27,0,*70
1500718019.15,9911,23.38,74428.8,21.59,10.27,10.93,0,*7D
1500718020.43,9912,23.38,74432.3,21.57,9.49,10.19,0,*42
1500718021.64,9913,23.38,74428.3,21.59,9.89,10.55,0,*49
1500718022.85,9914,23.38,74432.3,21.59,10.51,11.27,0,*77
1500718024.06,9915,23.38,74432.3,21.59,10.27,10.85,0,*7E
1500718025.32,9916,23.38,74434.8,21.61,10.57,11.33,0,*7D
1500718026.54,9917,23.38,74434.0,21.63,9.71,10.19,0,*4B
1500718027.81,9918,23.38,74436.0,21.61,9.81,10.31,0,*43
1500718029.01,9919,23.38,74432.5,21.61,9.21,9.71,0,*74
1500718030.2,9920,23.38,74434.8,21.59,9.67,10.17,0,*4F
1500718031.41,9921,23.38,74432.0,21.59,9.21,9.85,0,*7F
1500718032.59,9922,23.38,74432.5,21.59,9.43,9.99,0,*75
1500718033.8,9923,23.38,74438.3,21.59,9.89,10.43,0,*4D
1500718035.01,9924,23.38,74434.8,21.59,9.53,10.17,0,*4C
1500718036.25,9925,23.38,74436.8,21.59,9.61,10.31,0,*48
1500718037.44,9926,23.38,74436.3,21.59,8.87,9.67,0,*79
1500718038.62,9927,23.38,74434.0,21.59,8.65,9.67,0,*74
1500718039.82,9928,23.38,74436.5,21.61,8.45,9.67,0,*72
1500718041.08,9929,23.38,74432.3,21.57,8.33,9.53,0,*70
1500718042.35,9930,23.38,74436.3,21.57,9.01,10.27,0,*43
1500718043.56,9931,23.38,74434.8,21.59,8.45,9.53,0,*76
1500718044.78,9932,23.38,74434.8,21.53,8.37,9.35,0,*7A
1500718045.99,9933,23.38,74434.8,21.53,8.59,9.47,0,*76
1500718047.19,9934,23.38,74434.8,21.53,8.93,9.63,0,*71
1500718048.42,9935,23.38,74434.0,21.51,8.55,9.33,0,*7D
1500718049.67,9936,23.38,74432.3,21.51,8.75,9.61,0,*7B
1500718050.88,9937,23.38,74434.8,21.49,8.65,9.49,0,*78
1500718052.14,9938,23.38,74432.0,21.51,8.93,9.81,0,*73
1500718053.34,9939,23.38,74432.8,21.49,8.61,9.39,0,*75
1500718054.6,9940,23.38,74434.8,21.47,9.11,9.85,0,*74
1500718055.81,9941,23.38,74434.0,21.47,9.29,9.95,0,*7F
1500718057.01,9942,23.38,74432.3,21.49,9.29,9.89,0,*7F
1500718058.22,9943,23.38,74436.3,21.47,9.07,9.63,0,*78
1500718059.44,9944,23.38,74434.8,21.47,9.43,9.95,0,*76
1500718060.65,9945,23.38,74432.8,21.47,9.99,10.43,0,*43
1500718061.86,9946,23.38,74432.3,21.47,9.99,10.43,0,*40
1500718063.05,9947,23.38,74432.5,21.45,8.83,9.29,0,*7D
1500718064.31,9948,23.38,74436.5,21.43,9.57,10.23,0,*4E
1500718065.53,9949,23.38,74436.3,21.43,9.33,10.03,0,*4F
1500718066.71,9950,23.38,74434.0,21.45,9.63,10.51,0,*43
1500718067.9,9951,23.38,74434.5,21.45,10.17,11.17,0,*7A
1500718069.18,9952,23.38,74434.8,21.47,10.31,11.31,0,*7B
1500718070.42,9953,23.38,74432.5,21.47,9.99,10.95,0,*4F
1500718071.69,9954,23.38,74432.8,21.47,9.89,10.71,0,*43
1500718072.93,9955,23.38,74434.8,21.49,9.89,10.75,0,*48
1500718074.11,9956,23.38,74432.5,21.49,9.99,10.85,0,*45
1500718075.32,9957,23.38,74432.0,21.49,9.33,10.19,0,*41
1500718076.5,9958,23.38,74436.3,21.49,8.45,9.21,0,*7D
1500718077.73,9959,23.38,74434.5,21.49,7.77,8.55,0,*70
1500718079.0,9960,23.38,74432.8,21.47,8.33,9.19,0,*72
1500718080.25,9961,23.38,74430.8,21.47,8.51,9.39,0,*75
1500718081.5,9962,23.38,74430.5,21.47,9.19,10.05,0,*4C
1500718082.74,9963,23.38,74434.0,21.47,8.97,9.95,0,*7B
1500718083.97,9964,23.38,74434.0,21.47,9.11,9.99,0,*7F
1500718085.25,9965,23.38,74434.3,21.47,9.19,10.23,0,*4F
1500718086.48,9966,23.38,74438.3,21.47,8.79,10.09,0,*43
1500718087.71,9967,23.38,74436.5,21.47,7.45,8.41,0,*77
1500718088.97,9968,23.38,74438.0,21.43,7.11,7.65,0,*74
1500718090.21,9969,23.38,74434.3,21.43,5.51,6.39,0,*7B
1500718091.39,9970,23.38,74432.8,21.37,5.41,6.25,0,*7C
1500718092.6,9971,23.38,74432.0,21.29,6.29,7.15,0,*7D
1500718093.81,9972,23.38,74434.3,21.29,5.67,6.43,0,*75
1500718095.03,9973,23.38,74436.5,21.25,5.77,6.51,0,*7A
1500718096.22,9974,23.38,74440.3,21.21,5.27,6.03,0,*7B
1500718097.42,9975,23.38,74436.8,21.17,5.41,6.35,0,*7A
1500718098.62,9976,23.38,74432.8,21.17,6.21,7.15,0,*7F
1500718099.84,9977,23.38,74434.3,21.11,6.03,6.87,0,*72
1500718101.06,9978,23.38,74432.3,21.11,5.45,6.39,0,*79
1500718102.24,9979,23.38,74430.0,21.05,5.71,6.61,0,*77
1500718103.46,9980,23.38,74432.0,21.03,6.11,6.91,0,*7D
1500718104.71,9981,23.38,74436.3,20.99,6.39,7.27,0,*78
1500718105.91,9982,23.38,74436.5,20.95,4.33,5.07,0,*7F
1500718107.13,9983,23.38,74434.5,20.93,3.49,4.31,0,*76
1500718108.35,9984,23.38,74434.5,20.85,4.59,5.41,0,*76
1500718109.6,9985,23.38,74436.0,20.81,4.01,4.79,0,*74
1500718110.8,9986,23.38,74436.5,20.77,5.19,5.67,0,*78
1500718111.97,9987,23.38,74436.0,20.75,5.59,6.07,0,*7A
1500718113.2,9988,23.38,74436.5,20.71,6.35,6.65,0,*7C
1500718114.44,9989,23.38,74436.8,20.69,6.21,6.47,0,*71
1500718115.7,9990,23.38,74438.8,20.69,6.73,7.11,0,*7C
1500718116.9,9991,23.38,74440.8,20.67,7.19,7.37,0,*7A
1500718118.1,9992,23.38,74440.3,20.63,5.07,5.27,0,*73
1500718119.35,9993,23.38,74438.3,20.61,4.75,5.05,0,*74
1500718120.54,9994,23.38,74436.3,20.57,3.49,3.59,0,*71
1500718121.74,9995,23.38,74440.3,20.51,4.33,4.45,0,*76
1500718122.93,9996,23.38,74434.0,20.51,4.23,4.19,0,*7D
1500718124.13,9997,23.38,74434.5,20.47,4.27,4.27,0,*72